This is the latest recevied weather packets stored in our database for station/object WD0REW. If no packets are shown the sender has not sent any weather packets the latest 1 day(s).
| Time | Temp. | Humidity | Pressure | Rain* | Wind** | Luminosity | Snow |
|---|---|---|---|---|---|---|---|
| 1778013958 | 9.44° C | 82% | 1010.2 hPa | 0 mm | 1.34 m/s, 356° | 86 W/m² | - |
| 1778013655 | 9.44° C | 81% | 1010.1 hPa | 0 mm | 1.79 m/s, 0° | 68 W/m² | - |
| 1778013352 | 9.44° C | 82% | 1010.1 hPa | 0 mm | 0.89 m/s, 352° | 69 W/m² | - |
| 1778013049 | 9.44° C | 83% | 1010.1 hPa | 0 mm | 0.89 m/s, 342° | 90 W/m² | - |
| 1778012745 | 9.44° C | 86% | 1009.8 hPa | 0 mm | 1.34 m/s, 352° | 74 W/m² | - |
| 1778012441 | 9.44° C | 86% | 1009.6 hPa | 0 mm | 1.34 m/s, 351° | 96 W/m² | - |
| 1778012138 | 10° C | 87% | 1009.6 hPa | 0 mm | 1.79 m/s, 11° | 60 W/m² | - |
| 1778011836 | 10° C | 88% | 1009.3 hPa | 0 mm | 0.45 m/s, 350° | 80 W/m² | - |
| 1778011533 | 10° C | 88% | 1009.1 hPa | 0 mm | 0.89 m/s, 358° | 126 W/m² | - |
| 1778011230 | 10° C | 87% | 1009.3 hPa | 0 mm | 3.58 m/s, 349° | 101 W/m² | - |
| 1778010926 | 10° C | 89% | 1009.6 hPa | 0 mm | 0.89 m/s, 5° | 144 W/m² | - |
| 1778010624 | 10° C | 89% | 1009.7 hPa | 1.78 mm | 0.89 m/s, 352° | 103 W/m² | - |
| 1778010321 | 10° C | 89% | 1009.9 hPa | 1.78 mm | 1.79 m/s, 357° | 97 W/m² | - |
| 1778010016 | 10° C | 87% | 1010.1 hPa | 0 mm | 1.79 m/s, 353° | 77 W/m² | - |
| 1778009714 | 10.56° C | 86% | 1009.8 hPa | 0 mm | 1.79 m/s, 327° | 46 W/m² | - |
| 1778009410 | 10.56° C | 85% | 1010.2 hPa | 0 mm | 1.34 m/s, 346° | 51 W/m² | - |
| 1778009109 | 11.11° C | 83% | 1010 hPa | 0 mm | 0.89 m/s, 352° | 47 W/m² | - |
| 1778008806 | 11.11° C | 82% | 1009.7 hPa | 0 mm | 0 m/s | 57 W/m² | - |
| 1778008504 | 11.11° C | 80% | 1009.5 hPa | 0 mm | 0.45 m/s, 351° | 78 W/m² | - |
| 1778008202 | 11.67° C | 79% | 1009.5 hPa | 0 mm | 0.45 m/s, 238° | 63 W/m² | - |
| 1778007896 | 11.67° C | 78% | 1009.3 hPa | 0 mm | 1.79 m/s, 15° | 90 W/m² | - |
| 1778007592 | 11.67° C | 77% | 1009.2 hPa | 0 mm | 2.24 m/s, 357° | 84 W/m² | - |
| 1778007290 | 11.67° C | 78% | 1009.1 hPa | 0 mm | 1.34 m/s, 354° | 79 W/m² | - |
| 1778006986 | 11.67° C | 78% | 1009.3 hPa | 0 mm | 0.45 m/s, 74° | 54 W/m² | - |
| 1778006683 | 11.67° C | 77% | 1009.8 hPa | 0 mm | 0.89 m/s, 350° | 70 W/m² | - |
* Rain latest hour (hover to see other rain measurements)
** Current wind speed in m/s (hover to see current wind gust speed)